ORBCOMM FM107 [+]

Last updated on July 6, 2021, 3:36 p.m. UTC

1 40087U 14040B   21186.80632327 -.00000060  00000-0  24322-4 0  9991
2 40087  47.0072 325.5993 0002532 194.6946 165.3865 14.54888321370949
UTC
Height (km)
Latitude
Longitude
Inclination
Orbital Period
UTC large
Height (km)
Speed (km/s)
/
Latitude / Longitude
Inclination (degrees)
Orbital Period (minutes)
Azimuth
Elevation
Range (km)
Doppler Factor
iOS Compass Heading
iOS Angle